Wind_Speed
3 1 8 14 13 13 12 12 12 11 10 10 11 12 12 12 11 6 5 12 14 14 14 10 11 12 14 12 12 8 10 7 5 3 1 0 1 1 2 3 5 5 5 7 10
6 7 7 8 12 17 19 18 17 15 13 11 12 13 13 13 9 2 8 13 14 13 12 12 11 11 14 13 8 7 5 7 7 6 4 1 2 2 1 3 4 4 6 10 12
10 6 7 10 13 14 15 19 24 21 17 14 12 11 10 8 6 2 10 14 14 14 12 10 10 11 14 17 13 8 9 10 10 8 3 1 2 4 4 5 6 8 10 11 12
9 8 6 6 7 9 13 12 13 18 18 16 13 8 6 5 4 5 12 15 16 14 14 13 10 12 12 13 12 10 9 9 13 11 9 2 3 5 4 6 6 8 9 10 13
8 7 5 5 8 7 7 9 9 10 13 13 9 8 7 4 3 7 13 17 18 16 15 14 12 10 10 10 9 8 4 2 4 7 8 5 4 9 12 10 11 10 11 12 13
8 6 6 6 7 7 5 7 9 9 11 12 10 6 6 5 4 8 15 18 18 16 14 15 11 9 6 6 7 5 5 4 5 5 6 7 9 10 13 13 14 15 16 15 13
9 6 6 7 7 7 6 5 6 6 5 7 8 7 5 5 4 8 16 20 18 16 14 15 12 8 7 5 6 7 6 3 1 4 7 10 10 10 17 19 19 19 18 17 15
10 7 8 8 8 7 7 7 5 2 0 3 6 6 5 4 4 6 16 19 18 15 18 14 8 8 7 7 8 9 6 6 6 5 8 8 10 15 16 18 19 20 18 20 21
10 8 8 7 7 7 6 6 2 4 3 3 4 5 6 6 7 6 13 21 15 19 11 9 10 10 8 7 9 11 7 9 11 10 10 11 13 17 19 21 22 24 23 24 24
9 7 8 7 7 8 7 5 2 5 6 7 5 5 8 9 10 9 14 20 15 13 14 11 15 10 8 9 6 9 9 11 13 10 13 16 20 23 21 23 24 25 24 25 27
9 7 7 7 8 6 6 4 3 7 7 7 6 6 8 10 11 12 11 16 11 13 14 13 12 5 9 11 13 12 13 16 17 19 21 23 25 26 26 28 29 29 29 29 30
9 7 8 8 6 5 5 4 3 6 9 9 6 9 7 7 9 8 9 13 14 17 22 15 16 14 15 8 13 15 18 18 23 27 28 29 26 24 27 30 34 33 32 33 33
9 8 8 8 8 6 6 5 4 6 7 8 9 8 12 10 12 11 13 16 17 23 20 19 18 25 16 11 13 15 16 23 25 30 33 31 30 30 29 32 35 34 33 34 33
10 8 8 8 8 7 7 6 4 3 3 6 7 8 10 12 15 17 15 17 22 18 19 21 19 23 20 16 14 18 17 24 29 31 25 37 34 29 27 34 37 33 33 33 32
11 9 8 7 7 6 6 7 6 5 6 6 6 8 10 11 10 15 17 18 18 18 20 19 18 22 24 19 17 19 21 22 28 33 39 29 28 28 34 34 36 35 35 35 34
11 9 7 5 4 3 7 7 8 8 11 7 6 7 8 10 16 18 19 23 22 22 26 22 23 28 22 11 17 18 25 32 33 27 27 18 32 31 28 39 38 40 36 35 34
11 9 7 5 6 6 8 8 9 12 9 8 5 4 7 9 12 20 20 17 14 16 17 20 23 24 26 25 22 23 27 26 26 25 29 36 39 34 36 36 38 35 34 30 31
11 9 9 7 7 5 6 8 11 12 13 11 9 6 6 8 11 13 15 16 16 17 19 19 16 20 26 24 19 27 31 30 29 29 31 37 32 35 38 36 36 33 29 31 33
11 9 10 8 8 7 7 10 11 13 13 11 11 11 11 10 12 12 20 21 19 23 18 16 18 24 24 25 27 29 29 28 33 31 33 25 32 32 33 33 34 31 33 33 35
11 10 10 7 8 8 8 9 10 12 14 12 13 13 15 16 16 19 25 26 27 24 24 23 23 25 24 24 27 26 28 30 28 29 27 27 30 24 32 32 32 35 35 34 35
11 11 9 7 6 5 6 5 6 8 11 10 11 14 15 16 21 29 34 28 33 23 27 25 23 22 24 28 23 29 29 34 35 34 26 20 22 33 31 31 32 34 35 36 36
10 11 9 7 6 5 4 3 5 7 9 9 10 11 12 18 22 23 15 16 17 23 25 22 24 22 27 30 32 32 37 36 21 17 20 24 25 34 32 32 32 33 35 36 37
10 11 9 8 6 6 5 5 7 9 9 9 10 13 16 19 18 14 10 10 19 22 23 23 25 24 25 26 24 26 22 23 23 24 25 24 23 34 32 29 33 34 32 34 38
10 12 11 8 7 7 7 8 10 11 13 12 11 13 17 19 18 15 16 15 20 23 22 23 24 27 27 33 24 26 24 24 24 22 21 24 29 32 27 30 31 30 34 37 40
11 12 12 9 8 7 9 10 12 14 16 15 14 15 17 18 20 20 17 20 16 15 17 19 21 26 22 20 20 21 24 23 22 23 25 28 25 23 25 27 29 33 36 40 41
11 13 12 11 9 8 11 12 13 14 16 19 19 22 20 21 22 23 22 20 18 21 23 25 22 21 25 22 20 23 21 18 19 19 21 22 22 22 23 27 31 35 39 40 43
12 12 12 12 10 10 12 14 16 18 20 23 25 27 27 27 22 23 25 25 22 23 17 19 19 22 17 21 20 23 18 18 20 18 17 18 20 20 24 28 32 36 39 40 43
Wind_Direction
17 257 218 220 224 234 246 257 260 268 283 296 296 301 299 308 331 6 140 162 166 170 164 142 132 134 157 137 144 134 122 130 134 133 147 121 23 360 322 297 303 310 324 310 306
347 311 286 258 246 245 246 255 262 268 285 292 296 298 297 300 312 348 171 174 174 171 164 149 148 155 156 165 180 194 174 177 177 176 174 216 255 245 277 305 291 313 322 309 300
341 330 303 279 270 265 260 261 260 264 275 283 295 299 299 283 276 206 178 177 178 172 165 159 161 163 171 189 208 216 220 222 203 195 214 230 326 272 281 299 298 308 316 316 302
343 339 338 335 328 285 261 270 268 260 263 270 277 264 287 270 218 198 183 182 181 175 165 145 155 152 155 184 206 222 237 222 227 233 263 279 339 348 346 336 328 299 319 315 309
342 344 354 337 333 306 287 271 267 268 261 263 246 237 256 286 189 173 184 182 183 185 169 157 162 169 173 188 194 200 210 269 273 270 252 239 334 339 333 332 328 322 319 322 303
343 332 346 338 333 347 298 274 270 266 264 259 226 229 239 255 225 174 190 191 188 186 175 173 173 172 175 209 236 279 294 293 287 287 298 290 326 341 335 334 333 329 323 325 309
348 331 330 336 335 329 323 324 285 279 270 239 211 234 253 249 230 192 192 198 189 198 196 186 182 192 208 241 274 310 300 289 343 351 318 306 303 332 346 331 322 324 320 318 311
349 338 330 331 328 324 326 326 323 229 205 210 215 237 245 242 230 217 188 199 205 202 210 178 171 203 230 262 284 300 302 291 294 306 311 317 331 328 322 333 331 324 315 315 314
347 337 342 347 352 346 330 325 326 199 214 222 238 245 254 232 236 212 201 198 202 205 211 197 196 220 241 273 333 313 287 300 313 310 303 323 323 331 328 328 328 324 316 311 311
340 335 338 343 352 357 344 327 269 218 215 227 235 242 242 246 239 225 202 217 230 223 225 219 197 202 256 287 258 287 283 293 308 318 317 313 323 320 328 320 316 320 316 316 314
332 333 335 322 345 346 345 318 243 235 233 237 262 245 241 245 236 235 230 227 232 226 233 214 205 251 252 263 272 278 299 301 300 308 308 312 315 315 316 324 322 320 317 314 311
319 325 333 326 313 327 320 293 259 242 239 243 262 240 238 241 229 242 267 257 233 238 230 237 214 244 236 250 273 284 290 303 300 304 307 311 320 317 315 318 318 315 316 313 310
302 313 325 323 296 295 307 308 256 257 252 259 253 262 254 234 234 245 248 261 246 245 258 244 227 245 234 249 272 284 296 295 302 306 309 317 328 328 317 317 314 312 314 313 309
290 302 316 312 289 281 288 301 259 250 283 268 270 261 252 254 246 241 231 240 244 250 256 248 251 244 278 263 285 282 295 301 302 305 311 305 310 324 323 320 318 317 314 312 309
279 295 307 306 282 264 279 292 272 272 272 284 286 285 267 261 234 244 242 241 237 254 256 252 257 278 261 259 275 277 299 303 304 306 306 319 312 328 315 322 322 325 321 314 310
271 288 292 295 269 269 282 293 271 260 259 280 292 295 274 261 242 225 236 242 248 244 247 238 240 250 274 273 289 287 291 294 308 313 314 288 304 319 303 314 320 318 316 315 312
267 280 271 267 270 272 285 285 262 252 277 273 265 260 265 263 240 244 248 251 253 251 258 267 262 254 259 266 276 278 287 300 291 298 314 304 304 312 311 312 315 314 317 316 314
263 270 266 254 270 274 290 288 271 274 265 274 274 272 268 259 259 261 245 246 256 249 256 264 261 271 264 262 266 279 287 287 294 295 292 303 307 315 312 314 315 316 318 316 319
260 259 261 267 261 271 285 284 281 274 272 274 277 275 273 254 260 257 259 255 248 254 254 252 270 264 267 269 273 280 285 285 295 302 306 306 299 313 308 315 318 319 315 319 323
257 256 261 273 274 270 277 298 291 286 279 281 278 281 278 271 266 272 281 266 257 249 241 246 251 269 278 281 276 280 291 297 298 301 296 295 313 301 313 315 318 321 324 319 321
253 254 258 271 268 265 277 306 312 300 293 300 295 292 291 288 285 289 291 260 260 241 246 259 257 265 280 284 280 290 298 295 295 291 297 305 291 304 313 317 320 323 321 322 324
250 252 250 255 255 252 263 282 277 278 282 285 293 300 292 289 290 298 296 263 258 225 241 253 264 268 267 275 279 282 286 288 295 301 301 306 303 306 321 321 321 323 324 323 322
245 248 243 235 246 258 267 272 273 271 267 265 270 279 287 292 296 295 300 270 244 229 236 248 259 268 292 287 279 296 293 296 299 303 308 308 294 310 318 317 323 322 323 323 319
241 239 237 237 246 260 278 284 281 278 273 273 272 271 278 285 288 294 279 282 266 232 231 247 261 270 278 283 286 291 294 296 301 304 302 299 309 310 312 317 320 323 324 323 321
239 234 236 236 246 268 282 278 282 280 286 283 284 278 275 274 275 280 277 284 283 267 257 265 265 283 283 287 288 291 291 296 300 296 295 299 306 313 316 321 325 325 324 327 324
236 231 234 239 250 270 280 279 283 282 284 285 286 284 278 270 264 264 272 268 287 257 269 263 277 281 286 292 295 299 296 295 297 302 309 310 313 316 324 326 326 328 329 329 330
234 235 240 251 261 276 284 289 291 293 290 288 284 279 275 275 277 273 264 265 267 283 255 258 270 282 282 294 300 298 296 297 304 311 306 311 316 322 325 327 329 329 332 332 332
Height
5898 5898 5898 5898 5898 5898 5898 5898 5898 5898 5899 5899 5899 5900 5901 5902 5902 5901 5901 5901 5901 5903 5905 5906 5907 5908 5910 5911 5911 5911 5912 5912 5911 5911 5910 5909 5908 5907 5906 5905 5904 5903 5902 5901 5899
5898 5897 5896 5896 5896 5896 5896 5896 5896 5896 5897 5898 5898 5898 5900 5901 5901 5901 5901 5900 5901 5903 5905 5906 5907 5908 5911 5912 5911 5912 5913 5912 5911 5910 5909 5908 5907 5907 5906 5905 5904 5902 5900 5899 5898
5897 5895 5894 5894 5893 5893 5893 5893 5893 5894 5895 5896 5896 5897 5898 5899 5900 5900 5900 5900 5901 5903 5905 5906 5907 5908 5909 5910 5911 5911 5911 5911 5910 5909 5908 5907 5906 5905 5905 5903 5902 5900 5898 5897 5895
5895 5894 5893 5892 5891 5891 5891 5891 5891 5891 5893 5894 5895 5896 5897 5897 5900 5898 5899 5900 5901 5903 5905 5906 5908 5908 5909 5911 5911 5911 5911 5911 5910 5909 5908 5907 5906 5905 5903 5901 5899 5897 5894 5891 5889
5894 5893 5892 5891 5890 5889 5889 5889 5889 5889 5890 5891 5892 5894 5895 5896 5897 5898 5898 5900 5901 5903 5905 5906 5908 5909 5909 5910 5911 5910 5911 5911 5910 5909 5907 5907 5906 5904 5902 5899 5896 5893 5890 5888 5886
5893 5892 5891 5890 5890 5889 5888 5887 5887 5887 5887 5888 5890 5892 5893 5895 5896 5897 5897 5899 5901 5903 5905 5906 5908 5909 5910 5910 5910 5911 5910 5910 5909 5908 5907 5906 5904 5902 5901 5897 5894 5891 5889 5886 5883
5893 5892 5891 5890 5889 5888 5887 5886 5886 5885 5885 5886 5888 5890 5891 5892 5895 5896 5896 5898 5901 5903 5905 5906 5907 5908 5909 5910 5910 5909 5909 5909 5909 5908 5907 5905 5904 5901 5899 5895 5892 5890 5886 5883 5881
5893 5891 5890 5889 5888 5887 5886 5885 5884 5884 5885 5886 5887 5888 5889 5890 5892 5894 5896 5898 5901 5903 5903 5904 5906 5906 5907 5908 5908 5908 5908 5907 5906 5905 5904 5904 5902 5899 5897 5893 5889 5886 5883 5880 5876
5892 5891 5890 5889 5887 5886 5885 5884 5883 5884 5884 5885 5886 5887 5888 5889 5890 5892 5894 5896 5900 5902 5902 5903 5904 5905 5906 5906 5909 5907 5907 5906 5904 5903 5902 5901 5899 5897 5893 5890 5886 5882 5879 5875 5872
5891 5890 5889 5888 5887 5885 5884 5883 5883 5883 5884 5884 5885 5887 5886 5888 5888 5890 5892 5895 5898 5900 5902 5903 5902 5902 5904 5905 5910 5906 5905 5904 5902 5901 5900 5898 5896 5892 5890 5885 5882 5878 5874 5870 5866
5890 5889 5888 5887 5886 5885 5884 5883 5884 5884 5883 5884 5884 5884 5884 5886 5887 5888 5890 5893 5895 5898 5900 5901 5902 5905 5905 5902 5901 5901 5901 5900 5900 5898 5896 5894 5893 5889 5883 5880 5876 5872 5869 5865 5860
5888 5887 5887 5886 5885 5883 5882 5882 5882 5883 5883 5883 5883 5883 5884 5885 5886 5887 5889 5891 5894 5895 5896 5900 5901 5900 5898 5898 5897 5898 5898 5899 5895 5894 5892 5889 5889 5885 5880 5876 5871 5866 5863 5858 5855
5886 5885 5885 5884 5883 5882 5881 5881 5881 5880 5881 5882 5881 5881 5882 5884 5885 5885 5887 5888 5891 5892 5893 5895 5900 5893 5894 5894 5895 5896 5896 5893 5892 5888 5886 5883 5882 5880 5876 5871 5865 5861 5857 5852 5848
5884 5883 5883 5882 5882 5880 5880 5880 5880 5880 5881 5881 5880 5880 5880 5880 5881 5882 5884 5886 5887 5890 5891 5891 5893 5890 5888 5892 5893 5890 5892 5889 5888 5885 5887 5881 5876 5876 5870 5864 5858 5855 5851 5846 5842
5881 5881 5880 5879 5879 5879 5879 5879 5879 5880 5881 5880 5879 5878 5878 5879 5880 5879 5881 5882 5884 5888 5887 5890 5891 5888 5886 5888 5888 5886 5886 5886 5884 5881 5876 5874 5870 5871 5863 5858 5853 5849 5844 5839 5835
5879 5879 5878 5878 5877 5877 5877 5877 5878 5880 5878 5878 5878 5877 5876 5876 5877 5878 5878 5878 5880 5881 5882 5882 5884 5883 5881 5883 5884 5883 5882 5880 5879 5876 5873 5865 5868 5867 5859 5852 5847 5842 5838 5833 5828
5876 5877 5876 5876 5876 5876 5875 5876 5878 5877 5877 5877 5876 5875 5874 5874 5875 5875 5876 5876 5877 5878 5880 5880 5880 5880 5880 5880 5880 5880 5878 5880 5878 5875 5870 5864 5862 5858 5850 5845 5841 5836 5831 5827 5822
5873 5874 5874 5874 5874 5874 5873 5874 5874 5874 5874 5874 5874 5874 5874 5874 5873 5873 5874 5874 5875 5876 5878 5877 5878 5878 5877 5877 5877 5875 5875 5876 5871 5870 5867 5861 5853 5850 5842 5838 5835 5830 5825 5820 5816
5870 5871 5871 5871 5872 5872 5872 5871 5871 5871 5871 5872 5872 5872 5872 5872 5872 5871 5871 5871 5873 5873 5873 5874 5874 5872 5873 5873 5874 5871 5869 5868 5864 5863 5857 5854 5846 5844 5835 5833 5829 5824 5820 5816 5811
5867 5868 5868 5869 5869 5869 5869 5869 5868 5868 5868 5869 5870 5870 5869 5869 5869 5868 5866 5865 5864 5866 5867 5868 5869 5867 5866 5867 5867 5866 5864 5862 5860 5855 5854 5850 5841 5837 5832 5828 5824 5819 5815 5811 5805
5865 5865 5866 5866 5866 5867 5866 5866 5866 5866 5866 5866 5866 5866 5865 5865 5863 5860 5857 5856 5856 5858 5861 5860 5863 5864 5863 5862 5862 5859 5857 5852 5851 5848 5844 5843 5841 5830 5827 5823 5820 5815 5809 5803 5798
5861 5863 5863 5863 5864 5863 5863 5863 5863 5863 5863 5863 5863 5862 5861 5860 5858 5854 5851 5849 5849 5852 5856 5858 5858 5858 5857 5856 5854 5853 5849 5846 5843 5844 5840 5836 5831 5825 5822 5818 5815 5810 5804 5798 5792
5858 5859 5859 5860 5860 5860 5860 5860 5860 5859 5859 5859 5859 5859 5857 5855 5854 5851 5848 5847 5847 5848 5851 5852 5852 5854 5851 5847 5843 5844 5841 5839 5837 5836 5833 5832 5828 5820 5819 5814 5809 5804 5798 5793 5787
5855 5856 5857 5857 5857 5857 5857 5856 5856 5855 5854 5854 5855 5854 5852 5851 5849 5847 5847 5845 5844 5843 5845 5846 5847 5848 5849 5845 5842 5839 5836 5834 5833 5831 5830 5825 5824 5817 5814 5809 5804 5799 5793 5787 5780
5852 5853 5854 5854 5854 5854 5853 5853 5852 5851 5850 5850 5850 5849 5848 5847 5845 5844 5843 5841 5840 5839 5841 5841 5841 5841 5840 5839 5837 5834 5831 5829 5827 5826 5825 5822 5817 5813 5809 5804 5799 5793 5787 5780 5772
5849 5850 5851 5851 5851 5850 5850 5849 5848 5848 5847 5845 5845 5842 5842 5841 5840 5839 5838 5837 5837 5837 5835 5836 5836 5835 5834 5833 5831 5829 5826 5824 5822 5821 5818 5815 5811 5808 5804 5799 5794 5788 5781 5773 5765
5845 5846 5848 5848 5847 5846 5846 5845 5844 5842 5841 5839 5837 5835 5834 5833 5834 5833 5832 5832 5832 5832 5830 5831 5832 5832 5832 5828 5827 5824 5822 5819 5818 5817 5814 5811 5808 5803 5799 5795 5789 5782 5775 5768 5758